| time (UTC) | temp C | wind direction | speed KPH | gust KPH | rain 1hr cm | rain 24hr cm | rain mn cm | humidity % | barometer mb |
| 20260504002831 | 25 | 338 | 6.4 | 0.0 | 0.00 | 0.00 | 0.00 | 41 | 1010.6 |
| 20260504002630 | 25 | 355 | 6.4 | 0.0 | 0.00 | 0.00 | 0.00 | 42 | 1010.7 |
| 20260504002430 | 25 | 336 | 4.8 | 0.0 | 0.00 | 0.00 | 0.00 | 41 | 1010.6 |
| 20260504002229 | 25 | 350 | 4.8 | 0.0 | 0.00 | 0.00 | 0.00 | 41 | 1010.7 |
| 20260504002029 | 25 | 353 | 3.2 | 0.0 | 0.00 | 0.00 | 0.00 | 41 | 1010.6 |
| 20260504001828 | 25 | 326 | 4.8 | 0.0 | 0.00 | 0.00 | 0.00 | 42 | 1010.6 |
| 20260504001628 | 25 | 326 | 3.2 | 0.0 | 0.00 | 0.00 | 0.00 | 42 | 1010.6 |
| 20260504001441 | 25 | 259 | 1.6 | 0.0 | 0.00 | 0.00 | 0.00 | 42 | 1010.7 |
| 20260504001428 | 25 | 326 | 4.8 | 0.0 | 0.00 | 0.00 | 0.00 | 42 | 1010.7 |
| 20260504001027 | 25 | 326 | 4.8 | 0.0 | 0.00 | 0.00 | 0.00 | 42 | 1010.8 |
| 20260504000827 | 25 | 357 | 6.4 | 0.0 | 0.00 | 0.00 | 0.00 | 43 | 1010.8 |
| 20260504000627 | 25 | 344 | 3.2 | 0.0 | 0.00 | 0.00 | 0.00 | 43 | 1010.7 |
| 20260504000426 | 25 | 9 | 3.2 | 0.0 | 0.00 | 0.00 | 0.00 | 43 | 1010.7 |
| 20260504000241 | 25 | 336 | 4.8 | 0.0 | 0.00 | 0.00 | 0.00 | 42 | 1010.9 |
| 20260504000226 | 25 | 337 | 4.8 | 0.0 | 0.00 | 0.00 | 0.00 | 43 | 1010.9 |
| 20260504000036 | 25 | 328 | 3.2 | 0.0 | 0.00 | 0.00 | 0.00 | 42 | 1011.0 |
| 20260503235624 | 25 | 325 | 3.2 | 0.0 | 0.00 | 0.00 | 0.00 | 43 | 1010.9 |
| 20260503235424 | 25 | 0 | 3.2 | 0.0 | 0.00 | 0.00 | 0.00 | 43 | 1010.9 |
| 20260503235223 | 25 | 326 | 4.8 | 0.0 | 0.00 | 0.00 | 0.00 | 43 | 1010.8 |
| 20260503235032 | 25 | 58 | 3.2 | 0.0 | 0.00 | 0.00 | 0.00 | 42 | 1010.6 |
| 20260503235023 | 25 | 344 | 6.4 | 0.0 | 0.00 | 0.00 | 0.00 | 42 | 1010.9 |
| 20260503234623 | 25 | 332 | 4.8 | 0.0 | 0.00 | 0.00 | 0.00 | 43 | 1010.7 |
| 20260503234422 | 25 | 321 | 1.6 | 0.0 | 0.00 | 0.00 | 0.00 | 42 | 1010.9 |
| 20260503234231 | 25 | 353 | 8.0 | 0.0 | 0.00 | 0.00 | 0.00 | 42 | 1010.9 |
| 20260503234221 | 25 | 3 | 6.4 | 0.0 | 0.00 | 0.00 | 0.00 | 42 | 1010.9 |
| 20260503233819 | 25 | 350 | 3.2 | 0.0 | 0.00 | 0.00 | 0.00 | 42 | 1010.9 |
| 20260503233619 | 26 | 8 | 1.6 | 0.0 | 0.00 | 0.00 | 0.00 | 42 | 1011.0 |
| 20260503233418 | 26 | 269 | 1.6 | 0.0 | 0.00 | 0.00 | 0.00 | 40 | 1011.0 |
| 20260503233218 | 27 | 1 | 6.4 | 0.0 | 0.00 | 0.00 | 0.00 | 39 | 1011.0 |
| 20260503233017 | 27 | 328 | 3.2 | 0.0 | 0.00 | 0.00 | 0.00 | 37 | 1011.0 |
| 20260503232616 | 27 | 34 | 3.2 | 0.0 | 0.00 | 0.00 | 0.00 | 37 | 1011.1 |
| 20260503232416 | 27 | 342 | 1.6 | 0.0 | 0.00 | 0.00 | 0.00 | 37 | 1011.0 |
| 20260503232215 | 28 | 12 | 3.2 | 0.0 | 0.00 | 0.00 | 0.00 | 36 | 1011.1 |
| 20260503232015 | 28 | 325 | 3.2 | 0.0 | 0.00 | 0.00 | 0.00 | 36 | 1011.1 |
| 20260503231815 | 28 | 343 | 4.8 | 0.0 | 0.00 | 0.00 | 0.00 | 35 | 1011.3 |
| 20260503231414 | 28 | 22 | 6.4 | 0.0 | 0.00 | 0.00 | 0.00 | 35 | 1011.2 |
| 20260503231014 | 28 | 275 | 0.0 | 0.0 | 0.00 | 0.00 | 0.00 | 35 | 1011.4 |
| 20260503230823 | 28 | 322 | 4.8 | 0.0 | 0.00 | 0.00 | 0.00 | 35 | 1011.4 |
| 20260503230814 | 27 | 356 | 4.8 | 0.0 | 0.00 | 0.00 | 0.00 | 36 | 1011.3 |
| 20260503230412 | 28 | 342 | 3.2 | 0.0 | 0.00 | 0.00 | 0.00 | 35 | 1011.4 |
| 20260503230213 | 28 | 346 | 8.0 | 0.0 | 0.00 | 0.00 | 0.00 | 34 | 1011.3 |
| 20260503230012 | 28 | 344 | 4.8 | 0.0 | 0.00 | 0.00 | 0.00 | 35 | 1011.4 |
| 20260503225811 | 28 | 332 | 1.6 | 0.0 | 0.00 | 0.00 | 0.00 | 35 | 1011.5 |
| 20260503225620 | 28 | 336 | 6.4 | 0.0 | 0.00 | 0.00 | 0.00 | 35 | 1011.5 |
| 20260503225610 | 28 | 349 | 9.7 | 0.0 | 0.00 | 0.00 | 0.00 | 35 | 1011.5 |
| 20260503225423 | 28 | 298 | 1.6 | 0.0 | 0.00 | 0.00 | 0.00 | 35 | 1011.5 |
| 20260503225010 | 28 | 53 | 3.2 | 0.0 | 0.00 | 0.00 | 0.00 | 35 | 1011.5 |
| 20260503224810 | 29 | 284 | 1.6 | 0.0 | 0.00 | 0.00 | 0.00 | 35 | 1011.5 |
| 20260503224610 | 28 | 4 | 6.4 | 0.0 | 0.00 | 0.00 | 0.00 | 34 | 1011.4 |
| 20260503224409 | 29 | 359 | 3.2 | 0.0 | 0.00 | 0.00 | 0.00 | 34 | 1011.5 |
| 20260503224208 | 29 | 359 | 6.4 | 0.0 | 0.00 | 0.00 | 0.00 | 34 | 1011.5 |
| 20260503224007 | 30 | 328 | 1.6 | 0.0 | 0.00 | 0.00 | 0.00 | 34 | 1011.6 |
| 20260503223807 | 30 | 330 | 1.6 | 0.0 | 0.00 | 0.00 | 0.00 | 34 | 1011.5 |
| 20260503223607 | 30 | 2 | 0.0 | 0.0 | 0.00 | 0.00 | 0.00 | 34 | 1011.6 |
| 20260503223407 | 30 | 29 | 1.6 | 0.0 | 0.00 | 0.00 | 0.00 | 34 | 1011.6 |
| 20260503223207 | 30 | 31 | 1.6 | 0.0 | 0.00 | 0.00 | 0.00 | 33 | 1011.6 |
| 20260503223006 | 29 | 71 | 1.6 | 0.0 | 0.00 | 0.00 | 0.00 | 33 | 1011.6 |
| 20260503222817 | 29 | 22 | 1.6 | 0.0 | 0.00 | 0.00 | 0.00 | 34 | 1011.7 |
| 20260503222806 | 29 | 339 | 9.7 | 0.0 | 0.00 | 0.00 | 0.00 | 33 | 1011.7 |
| 20260503222415 | 29 | 302 | 3.2 | 0.0 | 0.00 | 0.00 | 0.00 | 33 | 1011.9 |
| 20260503222406 | 29 | 344 | 4.8 | 0.0 | 0.00 | 0.00 | 0.00 | 32 | 1011.7 |
| 20260503221812 | 29 | 8 | 0.0 | 0.0 | 0.00 | 0.00 | 0.00 | 34 | 1012.0 |
| 20260503221803 | 29 | 81 | 0.0 | 0.0 | 0.00 | 0.00 | 0.00 | 33 | 1011.9 |
| 20260503221411 | 28 | 289 | 3.2 | 0.0 | 0.00 | 0.00 | 0.00 | 34 | 1012.0 |
| 20260503221402 | 29 | 151 | 1.6 | 0.0 | 0.00 | 0.00 | 0.00 | 35 | 1012.1 |
| 20260503221002 | 29 | 62 | 1.6 | 0.0 | 0.00 | 0.00 | 0.00 | 34 | 1012.0 |
| 20260503220801 | 29 | 343 | 1.6 | 0.0 | 0.00 | 0.00 | 0.00 | 35 | 1012.0 |
| 20260503220610 | 28 | 34 | 1.6 | 0.0 | 0.00 | 0.00 | 0.00 | 34 | 1012.1 |
| 20260503220602 | 28 | 327 | 3.2 | 0.0 | 0.00 | 0.00 | 0.00 | 34 | 1012.1 |
| 20260503220412 | 28 | 90 | 1.6 | 0.0 | 0.00 | 0.00 | 0.00 | 35 | 1012.2 |
| 20260503215359 | 28 | 330 | 4.8 | 0.0 | 0.00 | 0.00 | 0.00 | 36 | 1012.2 |
| 20260503215158 | 28 | 287 | 0.0 | 0.0 | 0.00 | 0.00 | 0.00 | 36 | 1012.2 |
| 20260503214958 | 28 | 95 | 1.6 | 0.0 | 0.00 | 0.00 | 0.00 | 36 | 1012.3 |
| 20260503214758 | 27 | 346 | 6.4 | 0.0 | 0.00 | 0.00 | 0.00 | 36 | 1012.2 |
| 20260503214558 | 28 | 67 | 3.2 | 0.0 | 0.00 | 0.00 | 0.00 | 36 | 1012.3 |
| 20260503214357 | 28 | 326 | 3.2 | 0.0 | 0.00 | 0.00 | 0.00 | 36 | 1012.3 |
| 20260503214156 | 28 | 308 | 0.0 | 0.0 | 0.00 | 0.00 | 0.00 | 36 | 1012.1 |
| 20260503213955 | 28 | 313 | 1.6 | 0.0 | 0.00 | 0.00 | 0.00 | 36 | 1012.2 |
| 20260503213754 | 28 | 43 | 3.2 | 0.0 | 0.00 | 0.00 | 0.00 | 36 | 1012.3 |
| 20260503213554 | 28 | 288 | 3.2 | 0.0 | 0.00 | 0.00 | 0.00 | 37 | 1012.4 |
| 20260503213353 | 28 | 339 | 4.8 | 0.0 | 0.00 | 0.00 | 0.00 | 38 | 1012.5 |
| 20260503212951 | 28 | 334 | 4.8 | 0.0 | 0.00 | 0.00 | 0.00 | 37 | 1012.4 |
| 20260503212751 | 28 | 34 | 1.6 | 0.0 | 0.00 | 0.00 | 0.00 | 37 | 1012.5 |
| 20260503212550 | 28 | 36 | 1.6 | 0.0 | 0.00 | 0.00 | 0.00 | 39 | 1012.5 |
| 20260503212349 | 28 | 0 | 3.2 | 0.0 | 0.00 | 0.00 | 0.00 | 39 | 1012.5 |
| 20260503212148 | 27 | 324 | 3.2 | 0.0 | 0.00 | 0.00 | 0.00 | 38 | 1012.5 |
| 20260503211949 | 27 | 329 | 3.2 | 0.0 | 0.00 | 0.00 | 0.00 | 39 | 1012.5 |
| 20260503211747 | 28 | 327 | 3.2 | 0.0 | 0.00 | 0.00 | 0.00 | 39 | 1012.6 |
| 20260503211546 | 27 | 338 | 6.4 | 0.0 | 0.00 | 0.00 | 0.00 | 39 | 1012.5 |
| 20260503211345 | 27 | 343 | 4.8 | 0.0 | 0.00 | 0.00 | 0.00 | 39 | 1012.6 |
| 20260503211144 | 27 | 318 | 4.8 | 0.0 | 0.00 | 0.00 | 0.00 | 37 | 1012.6 |
| 20260503210943 | 28 | 327 | 6.4 | 0.0 | 0.00 | 0.00 | 0.00 | 37 | 1012.6 |
| 20260503210743 | 28 | 329 | 1.6 | 0.0 | 0.00 | 0.00 | 0.00 | 37 | 1012.6 |
| 20260503210542 | 28 | 24 | 1.6 | 0.0 | 0.00 | 0.00 | 0.00 | 37 | 1012.6 |
| 20260503210140 | 28 | 340 | 4.8 | 0.0 | 0.00 | 0.00 | 0.00 | 38 | 1012.6 |
| 20260503205939 | 28 | 326 | 3.2 | 0.0 | 0.00 | 0.00 | 0.00 | 38 | 1012.7 |
| 20260503205546 | 28 | 7 | 1.6 | 0.0 | 0.00 | 0.00 | 0.00 | 41 | 1012.7 |
| 20260503205537 | 28 | 29 | 3.2 | 0.0 | 0.00 | 0.00 | 0.00 | 39 | 1012.7 |
| 20260503205348 | 27 | 49 | 1.6 | 0.0 | 0.00 | 0.00 | 0.00 | 43 | 1012.8 |
| 20260503205145 | 27 | 32 | 3.2 | 0.0 | 0.00 | 0.00 | 0.00 | 42 | 1012.7 |
| 20260503204735 | 27 | 70 | 1.6 | 0.0 | 0.00 | 0.00 | 0.00 | 42 | 1012.8 |
| 20260503204534 | 27 | 340 | 3.2 | 0.0 | 0.00 | 0.00 | 0.00 | 42 | 1012.9 |
| 20260503204334 | 27 | 335 | 4.8 | 0.0 | 0.00 | 0.00 | 0.00 | 42 | 1012.9 |
| 20260503204133 | 27 | 10 | 8.0 | 0.0 | 0.00 | 0.00 | 0.00 | 41 | 1013.0 |
| 20260503203933 | 27 | 333 | 9.7 | 0.0 | 0.00 | 0.00 | 0.00 | 40 | 1012.9 |
| 20260503203733 | 28 | 70 | 1.6 | 0.0 | 0.00 | 0.00 | 0.00 | 41 | 1012.9 |
| 20260503203532 | 27 | 33 | 1.6 | 0.0 | 0.00 | 0.00 | 0.00 | 42 | 1013.0 |
| 20260503203331 | 27 | 310 | 3.2 | 0.0 | 0.00 | 0.00 | 0.00 | 42 | 1013.1 |
| 20260503203142 | 26 | 317 | 3.2 | 0.0 | 0.00 | 0.00 | 0.00 | 43 | 1013.1 |
| 20260503203130 | 27 | 345 | 6.4 | 0.0 | 0.00 | 0.00 | 0.00 | 43 | 1013.1 |
| 20260503202528 | 26 | 10 | 3.2 | 0.0 | 0.00 | 0.00 | 0.00 | 44 | 1013.1 |
| 20260503202327 | 26 | 338 | 4.8 | 0.0 | 0.00 | 0.00 | 0.00 | 42 | 1013.1 |
| 20260503202138 | 26 | 353 | 1.6 | 0.0 | 0.00 | 0.00 | 0.00 | 42 | 1013.1 |
| 20260503202125 | 26 | 334 | 3.2 | 0.0 | 0.00 | 0.00 | 0.00 | 43 | 1013.2 |
| 20260503201725 | 27 | 14 | 1.6 | 0.0 | 0.00 | 0.00 | 0.00 | 42 | 1013.1 |
| 20260503201524 | 27 | 326 | 3.2 | 0.0 | 0.00 | 0.00 | 0.00 | 42 | 1013.2 |
| 20260503201337 | 26 | 55 | 1.6 | 0.0 | 0.00 | 0.00 | 0.00 | 43 | 1013.2 |
| 20260503201323 | 27 | 302 | 1.6 | 0.0 | 0.00 | 0.00 | 0.00 | 42 | 1013.1 |
| 20260503200922 | 26 | 353 | 8.0 | 0.0 | 0.00 | 0.00 | 0.00 | 44 | 1013.2 |
| 20260503200521 | 26 | 296 | 3.2 | 0.0 | 0.00 | 0.00 | 0.00 | 43 | 1013.2 |
| 20260503200320 | 26 | 216 | 1.6 | 0.0 | 0.00 | 0.00 | 0.00 | 43 | 1013.3 |
| 20260503200119 | 26 | 5 | 6.4 | 0.0 | 0.00 | 0.00 | 0.00 | 42 | 1013.2 |
| 20260503195919 | 26 | 14 | 1.6 | 0.0 | 0.00 | 0.00 | 0.00 | 42 | 1013.2 |
| 20260503195729 | 26 | 315 | 1.6 | 0.0 | 0.00 | 0.00 | 0.00 | 43 | 1013.3 |
| 20260503195719 | 26 | 327 | 3.2 | 0.0 | 0.00 | 0.00 | 0.00 | 42 | 1013.4 |
| 20260503195317 | 26 | 335 | 4.8 | 0.0 | 0.00 | 0.00 | 0.00 | 44 | 1013.5 |
| 20260503195116 | 26 | 341 | 4.8 | 0.0 | 0.00 | 0.00 | 0.00 | 44 | 1013.4 |
| 20260503194916 | 26 | 340 | 9.7 | 0.0 | 0.00 | 0.00 | 0.00 | 42 | 1013.4 |
| 20260503194726 | 27 | 342 | 3.2 | 0.0 | 0.00 | 0.00 | 0.00 | 43 | 1013.6 |
| 20260503194714 | 26 | 22 | 1.6 | 0.0 | 0.00 | 0.00 | 0.00 | 41 | 1013.5 |
| 20260503194313 | 27 | 342 | 1.6 | 0.0 | 0.00 | 0.00 | 0.00 | 43 | 1013.5 |
| 20260503194111 | 26 | 349 | 3.2 | 0.0 | 0.00 | 0.00 | 0.00 | 43 | 1013.6 |
| 20260503193911 | 26 | 347 | 6.4 | 0.0 | 0.00 | 0.00 | 0.00 | 42 | 1013.6 |
| 20260503193712 | 26 | 302 | 3.2 | 0.0 | 0.00 | 0.00 | 0.00 | 44 | 1013.7 |
| 20260503193510 | 26 | 293 | 3.2 | 0.0 | 0.00 | 0.00 | 0.00 | 44 | 1013.7 |
| 20260503193320 | 26 | 328 | 3.2 | 0.0 | 0.00 | 0.00 | 0.00 | 43 | 1013.7 |
| 20260503193309 | 26 | 326 | 9.7 | 0.0 | 0.00 | 0.00 | 0.00 | 42 | 1013.7 |
| 20260503192908 | 26 | 3 | 6.4 | 0.0 | 0.00 | 0.00 | 0.00 | 43 | 1013.7 |
| 20260503192707 | 26 | 5 | 4.8 | 0.0 | 0.00 | 0.00 | 0.00 | 43 | 1013.8 |
| 20260503192307 | 25 | 332 | 3.2 | 0.0 | 0.00 | 0.00 | 0.00 | 44 | 1013.7 |
| 20260503192118 | 25 | 146 | 3.2 | 0.0 | 0.00 | 0.00 | 0.00 | 44 | 1013.9 |
| 20260503192107 | 25 | 316 | 0.0 | 0.0 | 0.00 | 0.00 | 0.00 | 45 | 1013.9 |
| 20260503191705 | 26 | 344 | 1.6 | 0.0 | 0.00 | 0.00 | 0.00 | 44 | 1014.0 |
| 20260503191504 | 26 | 321 | 3.2 | 0.0 | 0.00 | 0.00 | 0.00 | 44 | 1014.0 |
| 20260503191104 | 26 | 321 | 4.8 | 0.0 | 0.00 | 0.00 | 0.00 | 45 | 1013.8 |
| 20260503190902 | 26 | 74 | 3.2 | 0.0 | 0.00 | 0.00 | 0.00 | 44 | 1013.8 |
| 20260503190703 | 26 | 344 | 1.6 | 0.0 | 0.00 | 0.00 | 0.00 | 45 | 1013.9 |
| 20260503190502 | 25 | 68 | 4.8 | 0.0 | 0.00 | 0.00 | 0.00 | 45 | 1013.8 |
| 20260503190313 | 25 | 353 | 1.6 | 0.0 | 0.00 | 0.00 | 0.00 | 46 | 1013.9 |
| 20260503190110 | 25 | 27 | 3.2 | 0.0 | 0.00 | 0.00 | 0.00 | 45 | 1014.0 |
| 20260503185658 | 25 | 8 | 4.8 | 0.0 | 0.00 | 0.00 | 0.00 | 47 | 1014.0 |
| 20260503185458 | 25 | 18 | 3.2 | 0.0 | 0.00 | 0.00 | 0.00 | 46 | 1014.1 |
| 20260503185258 | 25 | 297 | 3.2 | 0.0 | 0.00 | 0.00 | 0.00 | 46 | 1014.1 |
| 20260503185057 | 24 | 93 | 0.0 | 0.0 | 0.00 | 0.00 | 0.00 | 46 | 1014.1 |
| 20260503184909 | 24 | 326 | 0.0 | 0.0 | 0.00 | 0.00 | 0.00 | 47 | 1014.2 |
| 20260503184857 | 24 | 354 | 3.2 | 0.0 | 0.00 | 0.00 | 0.00 | 45 | 1014.1 |
| 20260503184456 | 23 | 348 | 6.4 | 0.0 | 0.00 | 0.00 | 0.00 | 46 | 1014.1 |
| 20260503184256 | 23 | 343 | 3.2 | 0.0 | 0.00 | 0.00 | 0.00 | 46 | 1014.1 |
| 20260503184107 | 23 | 61 | 3.2 | 0.0 | 0.00 | 0.00 | 0.00 | 48 | 1014.3 |
| 20260503184056 | 23 | 294 | 1.6 | 0.0 | 0.00 | 0.00 | 0.00 | 48 | 1014.3 |
| 20260503183656 | 23 | 338 | 1.6 | 0.0 | 0.00 | 0.00 | 0.00 | 49 | 1014.2 |
| 20260503183456 | 23 | 298 | 1.6 | 0.0 | 0.00 | 0.00 | 0.00 | 48 | 1014.4 |
| 20260503183254 | 23 | 346 | 3.2 | 0.0 | 0.00 | 0.00 | 0.00 | 49 | 1014.4 |
| 20260503183054 | 22 | 2 | 8.0 | 0.0 | 0.00 | 0.00 | 0.00 | 49 | 1014.4 |
| 20260503182854 | 22 | 262 | 0.0 | 0.0 | 0.00 | 0.00 | 0.00 | 51 | 1014.4 |
| 20260503182707 | 22 | 340 | 6.4 | 0.0 | 0.00 | 0.00 | 0.00 | 51 | 1014.4 |
| 20260503182654 | 22 | 343 | 1.6 | 0.0 | 0.00 | 0.00 | 0.00 | 50 | 1014.5 |
| 20260503182104 | 22 | 65 | 0.0 | 0.0 | 0.00 | 0.00 | 0.00 | 51 | 1014.4 |
| 20260503182053 | 22 | 2 | 1.6 | 0.0 | 0.00 | 0.00 | 0.00 | 52 | 1014.3 |
| 20260503181651 | 22 | 331 | 3.2 | 0.0 | 0.00 | 0.00 | 0.00 | 53 | 1014.6 |
| 20260503181250 | 21 | 17 | 1.6 | 0.0 | 0.00 | 0.00 | 0.00 | 52 | 1014.5 |
| 20260503181050 | 21 | 264 | 1.6 | 0.0 | 0.00 | 0.00 | 0.00 | 53 | 1014.6 |
| 20260503180901 | 21 | 267 | 3.2 | 0.0 | 0.00 | 0.00 | 0.00 | 54 | 1014.6 |
| 20260503180850 | 21 | 354 | 1.6 | 0.0 | 0.00 | 0.00 | 0.00 | 52 | 1014.4 |
| 20260503180448 | 21 | 52 | 0.0 | 0.0 | 0.00 | 0.00 | 0.00 | 53 | 1014.6 |
| 20260503180047 | 21 | 78 | 0.0 | 0.0 | 0.00 | 0.00 | 0.00 | 54 | 1014.6 |
| 20260503175847 | 21 | 355 | 4.8 | 0.0 | 0.00 | 0.00 | 0.00 | 54 | 1014.6 |
| 20260503175700 | 21 | 17 | 3.2 | 0.0 | 0.00 | 0.00 | 0.00 | 55 | 1014.7 |
| 20260503175647 | 21 | 291 | 3.2 | 0.0 | 0.00 | 0.00 | 0.00 | 54 | 1014.6 |
| 20260503175245 | 21 | 319 | 3.2 | 0.0 | 0.00 | 0.00 | 0.00 | 55 | 1014.6 |
| 20260503175045 | 21 | 241 | 3.2 | 0.0 | 0.00 | 0.00 | 0.00 | 57 | 1014.7 |
| 20260503174643 | 20 | 325 | 1.6 | 0.0 | 0.00 | 0.00 | 0.00 | 56 | 1014.8 |
| 20260503174443 | 20 | 42 | 1.6 | 0.0 | 0.00 | 0.00 | 0.00 | 57 | 1014.7 |
| 20260503174242 | 20 | 216 | 0.0 | 0.0 | 0.00 | 0.00 | 0.00 | 58 | 1014.8 |
| 20260503174041 | 20 | 70 | 3.2 | 0.0 | 0.00 | 0.00 | 0.00 | 57 | 1014.7 |
| 20260503173841 | 20 | 59 | 3.2 | 0.0 | 0.00 | 0.00 | 0.00 | 58 | 1014.7 |
| 20260503173640 | 20 | 339 | 6.4 | 0.0 | 0.00 | 0.00 | 0.00 | 58 | 1014.7 |
| 20260503173440 | 20 | 29 | 1.6 | 0.0 | 0.00 | 0.00 | 0.00 | 58 | 1014.7 |
| 20260503173239 | 20 | 52 | 4.8 | 0.0 | 0.00 | 0.00 | 0.00 | 59 | 1014.7 |
| 20260503173038 | 20 | 351 | 4.8 | 0.0 | 0.00 | 0.00 | 0.00 | 59 | 1014.9 |
| 20260503172638 | 19 | 259 | 1.6 | 0.0 | 0.00 | 0.00 | 0.00 | 59 | 1014.8 |
| 20260503172436 | 19 | 8 | 3.2 | 0.0 | 0.00 | 0.00 | 0.00 | 60 | 1014.8 |
| 20260503172236 | 19 | 34 | 1.6 | 0.0 | 0.00 | 0.00 | 0.00 | 61 | 1014.8 |
| 20260503172035 | 19 | 345 | 6.4 | 0.0 | 0.00 | 0.00 | 0.00 | 60 | 1014.9 |
| 20260503171846 | 18 | 293 | 3.2 | 0.0 | 0.00 | 0.00 | 0.00 | 62 | 1014.9 |
| 20260503171835 | 19 | 330 | 1.6 | 0.0 | 0.00 | 0.00 | 0.00 | 62 | 1014.8 |
| 20260503171643 | 18 | 35 | 4.8 | 0.0 | 0.00 | 0.00 | 0.00 | 62 | 1015.0 |
| 20260503171233 | 18 | 6 | 1.6 | 0.0 | 0.00 | 0.00 | 0.00 | 62 | 1014.9 |
| 20260503171032 | 18 | 344 | 3.2 | 0.0 | 0.00 | 0.00 | 0.00 | 62 | 1015.0 |
| 20260503170842 | 18 | 344 | 3.2 | 0.0 | 0.00 | 0.00 | 0.00 | 62 | 1015.0 |
| 20260503170831 | 18 | 353 | 3.2 | 0.0 | 0.00 | 0.00 | 0.00 | 62 | 1015.0 |
| 20260503170441 | 18 | 12 | 1.6 | 0.0 | 0.00 | 0.00 | 0.00 | 63 | 1015.0 |
| 20260503160208 | 17 | 4 | 1.6 | 0.0 | 0.00 | 0.00 | 0.00 | 67 | 1015.1 |
| 20260503150950 | 15 | 356 | 3.2 | 0.0 | 0.00 | 0.00 | 0.00 | 71 | 1015.3 |
| 20260503150749 | 15 | 332 | 1.6 | 0.0 | 0.00 | 0.00 | 0.00 | 71 | 1015.2 |
| 20260503150547 | 15 | 8 | 1.6 | 0.0 | 0.00 | 0.00 | 0.00 | 71 | 1015.2 |
| 20260503150346 | 15 | 36 | 1.6 | 0.0 | 0.00 | 0.00 | 0.00 | 70 | 1015.1 |
| 20260503150146 | 15 | 346 | 6.4 | 0.0 | 0.00 | 0.00 | 0.00 | 71 | 1015.2 |
| 20260503130511 | 13 | 327 | 1.6 | 0.0 | 0.00 | 0.00 | 0.00 | 74 | 1014.8 |
| 20260503130111 | 13 | 304 | 0.0 | 0.0 | 0.00 | 0.00 | 0.00 | 74 | 1014.7 |
| 20260503110435 | 12 | 11 | 4.8 | 0.0 | 0.00 | 0.00 | 0.00 | 80 | 1015.3 |
| 20260503110234 | 12 | 356 | 4.8 | 0.0 | 0.00 | 0.00 | 0.00 | 80 | 1015.3 |
| 20260503100209 | 12 | 338 | 1.6 | 0.0 | 0.00 | 0.00 | 0.00 | 76 | 1015.3 |
| 20260503090354 | 13 | 187 | 0.0 | 0.0 | 0.00 | 0.00 | 0.00 | 71 | 1015.2 |
| 20260503072929 | 15 | 337 | 0.0 | 0.0 | 0.00 | 0.00 | 0.00 | 63 | 1015.2 |
| 20260503072125 | 15 | 4 | 1.6 | 0.0 | 0.00 | 0.00 | 0.00 | 62 | 1015.2 |
| 20260503060106 | 16 | 333 | 1.6 | 0.0 | 0.00 | 0.00 | 0.00 | 62 | 1015.0 |
| 20260503054901 | 16 | 345 | 1.6 | 0.0 | 0.00 | 0.00 | 0.00 | 59 | 1015.0 |
| 20260503054713 | 16 | 343 | 3.2 | 0.0 | 0.00 | 0.00 | 0.00 | 60 | 1015.0 |
| 20260503053859 | 16 | 333 | 1.6 | 0.0 | 0.00 | 0.00 | 0.00 | 59 | 1014.8 |
| 20260503053658 | 16 | 16 | 0.0 | 0.0 | 0.00 | 0.00 | 0.00 | 61 | 1014.9 |
| 20260503052855 | 17 | 329 | 1.6 | 0.0 | 0.00 | 0.00 | 0.00 | 59 | 1015.0 |
| 20260503051653 | 17 | 2 | 0.0 | 0.0 | 0.00 | 0.00 | 0.00 | 59 | 1014.9 |
| 20260503050905 | 17 | 349 | 1.6 | 0.0 | 0.00 | 0.00 | 0.00 | 60 | 1014.7 |
| 20260503045449 | 17 | 333 | 1.6 | 0.0 | 0.00 | 0.00 | 0.00 | 57 | 1014.7 |
| 20260503045247 | 17 | 205 | 0.0 | 0.0 | 0.00 | 0.00 | 0.00 | 57 | 1014.8 |
| 20260503043845 | 17 | 108 | 1.6 | 0.0 | 0.00 | 0.00 | 0.00 | 56 | 1014.7 |
| 20260503043043 | 17 | 113 | 0.0 | 0.0 | 0.00 | 0.00 | 0.00 | 57 | 1014.7 |
| 20260503042842 | 17 | 91 | 0.0 | 0.0 | 0.00 | 0.00 | 0.00 | 57 | 1014.7 |
| 20260503042441 | 17 | 198 | 1.6 | 0.0 | 0.00 | 0.00 | 0.00 | 56 | 1014.5 |
| 20260503041841 | 18 | 39 | 1.6 | 0.0 | 0.00 | 0.00 | 0.00 | 55 | 1014.3 |
| 20260503040247 | 18 | 272 | 1.6 | 0.0 | 0.00 | 0.00 | 0.00 | 56 | 1014.2 |
| 20260503035436 | 18 | 237 | 1.6 | 0.0 | 0.00 | 0.00 | 0.00 | 55 | 1014.3 |
| 20260503035034 | 18 | 245 | 1.6 | 0.0 | 0.00 | 0.00 | 0.00 | 55 | 1014.3 |
| 20260503034632 | 18 | 251 | 3.2 | 0.0 | 0.00 | 0.00 | 0.00 | 56 | 1014.1 |
| 20260503033843 | 18 | 323 | 1.6 | 0.0 | 0.00 | 0.00 | 0.00 | 55 | 1013.9 |
| 20260503033830 | 18 | 297 | 1.6 | 0.0 | 0.00 | 0.00 | 0.00 | 56 | 1014.0 |
| 20260503033429 | 18 | 319 | 1.6 | 0.0 | 0.00 | 0.00 | 0.00 | 54 | 1013.9 |
| 20260503031224 | 20 | 268 | 1.6 | 0.0 | 0.00 | 0.00 | 0.00 | 52 | 1013.6 |
| 20260503031034 | 20 | 253 | 1.6 | 0.0 | 0.00 | 0.00 | 0.00 | 52 | 1013.7 |
| 20260503030021 | 20 | 313 | 0.0 | 0.0 | 0.00 | 0.00 | 0.00 | 52 | 1013.6 |
| 20260503025220 | 20 | 342 | 1.6 | 0.0 | 0.00 | 0.00 | 0.00 | 52 | 1013.6 |
| 20260503025019 | 20 | 356 | 1.6 | 0.0 | 0.00 | 0.00 | 0.00 | 52 | 1013.6 |
| 20260503024818 | 20 | 222 | 1.6 | 0.0 | 0.00 | 0.00 | 0.00 | 52 | 1013.7 |
| 20260503024618 | 20 | 262 | 1.6 | 0.0 | 0.00 | 0.00 | 0.00 | 51 | 1013.5 |
| 20260503024026 | 21 | 328 | 3.2 | 0.0 | 0.00 | 0.00 | 0.00 | 50 | 1013.7 |
| 20260503024016 | 21 | 290 | 1.6 | 0.0 | 0.00 | 0.00 | 0.00 | 50 | 1013.7 |
| 20260503023614 | 21 | 358 | 1.6 | 0.0 | 0.00 | 0.00 | 0.00 | 49 | 1013.6 |
| 20260503023414 | 21 | 345 | 1.6 | 0.0 | 0.00 | 0.00 | 0.00 | 50 | 1013.7 |
| 20260503022612 | 21 | 321 | 3.2 | 0.0 | 0.00 | 0.00 | 0.00 | 49 | 1013.4 |
| 20260503022411 | 21 | 250 | 3.2 | 0.0 | 0.00 | 0.00 | 0.00 | 48 | 1013.6 |
| 20260503021809 | 21 | 359 | 1.6 | 0.0 | 0.00 | 0.00 | 0.00 | 47 | 1013.7 |
| 20260503021608 | 21 | 256 | 1.6 | 0.0 | 0.00 | 0.00 | 0.00 | 48 | 1013.5 |
| 20260503021408 | 21 | 34 | 1.6 | 0.0 | 0.00 | 0.00 | 0.00 | 49 | 1013.6 |
| 20260503021207 | 21 | 84 | 1.6 | 0.0 | 0.00 | 0.00 | 0.00 | 46 | 1013.6 |
| 20260503021008 | 21 | 259 | 1.6 | 0.0 | 0.00 | 0.00 | 0.00 | 47 | 1013.7 |
| 20260503020806 | 21 | 273 | 1.6 | 0.0 | 0.00 | 0.00 | 0.00 | 48 | 1013.6 |
| 20260503020404 | 21 | 351 | 3.2 | 0.0 | 0.00 | 0.00 | 0.00 | 48 | 1013.7 |
| 20260503020004 | 21 | 260 | 1.6 | 0.0 | 0.00 | 0.00 | 0.00 | 49 | 1013.7 |
| 20260503015603 | 21 | 18 | 3.2 | 0.0 | 0.00 | 0.00 | 0.00 | 48 | 1013.5 |
| 20260503015402 | 21 | 16 | 1.6 | 0.0 | 0.00 | 0.00 | 0.00 | 50 | 1013.8 |
| 20260503015201 | 21 | 17 | 4.8 | 0.0 | 0.00 | 0.00 | 0.00 | 49 | 1013.5 |
| 20260503015001 | 22 | 328 | 3.2 | 0.0 | 0.00 | 0.00 | 0.00 | 49 | 1013.6 |
| 20260503014609 | 22 | 268 | 1.6 | 0.0 | 0.00 | 0.00 | 0.00 | 49 | 1013.7 |
| 20260503014600 | 22 | 352 | 3.2 | 0.0 | 0.00 | 0.00 | 0.00 | 47 | 1013.7 |
| 20260503014157 | 22 | 336 | 3.2 | 0.0 | 0.00 | 0.00 | 0.00 | 49 | 1013.6 |
| 20260503013957 | 22 | 302 | 3.2 | 0.0 | 0.00 | 0.00 | 0.00 | 49 | 1013.6 |
| 20260503013408 | 22 | 236 | 1.6 | 0.0 | 0.00 | 0.00 | 0.00 | 49 | 1013.8 |
| 20260503013355 | 22 | 350 | 3.2 | 0.0 | 0.00 | 0.00 | 0.00 | 50 | 1013.6 |
| 20260503012953 | 22 | 331 | 1.6 | 0.0 | 0.00 | 0.00 | 0.00 | 48 | 1013.7 |
| 20260503012751 | 22 | 336 | 3.2 | 0.0 | 0.00 | 0.00 | 0.00 | 48 | 1013.7 |
| 20260503012601 | 22 | 314 | 0.0 | 0.0 | 0.00 | 0.00 | 0.00 | 48 | 1013.7 |
| 20260503012551 | 22 | 231 | 1.6 | 0.0 | 0.00 | 0.00 | 0.00 | 47 | 1013.8 |
| 20260503012150 | 22 | 184 | 1.6 | 0.0 | 0.00 | 0.00 | 0.00 | 47 | 1013.7 |
| 20260503011747 | 22 | 278 | 3.2 | 0.0 | 0.00 | 0.00 | 0.00 | 48 | 1013.7 |
| 20260503011547 | 22 | 239 | 1.6 | 0.0 | 0.00 | 0.00 | 0.00 | 48 | 1013.7 |
| 20260503011146 | 22 | 184 | 1.6 | 0.0 | 0.00 | 0.00 | 0.00 | 49 | 1013.6 |
| 20260503010945 | 22 | 314 | 1.6 | 0.0 | 0.00 | 0.00 | 0.00 | 48 | 1013.7 |
| 20260503010745 | 22 | 299 | 0.0 | 0.0 | 0.00 | 0.00 | 0.00 | 46 | 1013.7 |
| 20260503010558 | 22 | 90 | 3.2 | 0.0 | 0.00 | 0.00 | 0.00 | 49 | 1013.7 |
| 20260503005942 | 22 | 316 | 3.2 | 0.0 | 0.00 | 0.00 | 0.00 | 49 | 1013.5 |
| 20260503005542 | 22 | 360 | 3.2 | 0.0 | 0.00 | 0.00 | 0.00 | 48 | 1013.7 |
| 20260503005341 | 22 | 341 | 1.6 | 0.0 | 0.00 | 0.00 | 0.00 | 48 | 1013.7 |
| 20260503005140 | 22 | 344 | 4.8 | 0.0 | 0.00 | 0.00 | 0.00 | 48 | 1013.7 |
| 20260503004739 | 22 | 332 | 4.8 | 0.0 | 0.00 | 0.00 | 0.00 | 49 | 1013.6 |
| 20260503004538 | 22 | 302 | 3.2 | 0.0 | 0.00 | 0.00 | 0.00 | 49 | 1013.8 |
| 20260503003938 | 22 | 9 | 3.2 | 0.0 | 0.00 | 0.00 | 0.00 | 50 | 1013.7 |
| 20260503003738 | 22 | 286 | 3.2 | 0.0 | 0.00 | 0.00 | 0.00 | 49 | 1013.7 |
| 20260503003537 | 22 | 310 | 1.6 | 0.0 | 0.00 | 0.00 | 0.00 | 49 | 1013.9 |
| 20260503003337 | 22 | 7 | 6.4 | 0.0 | 0.00 | 0.00 | 0.00 | 49 | 1013.9 |
| 20260503003135 | 22 | 344 | 1.6 | 0.0 | 0.00 | 0.00 | 0.00 | 49 | 1013.9 |
| 20260503002935 | 22 | 334 | 6.4 | 0.0 | 0.00 | 0.00 | 0.00 | 48 | 1013.9 |